Terug naar catalogus

ARIANE 2 DEB

ActiefGTO
NORAD 28567·DEBRIS·🇫🇷 France

Gelanceerd Jan 27, 1989 vanaf Guiana Space Centre

Loading…

TLE

VerouderdSource: Space-Track

Epoch: Sep 5, 2026, 14:05 UTC

1 28567U 89006AJ  26248.58691418  .00000215  00000-0  20382-2 0  9990
2 28567   7.9663 294.3441 7093612   6.7448 359.3207  2.38137835122403

Volg ARIANE 2 DEB in realtime met AllMySat

Download on the App Store